Flag for U.S.A. Weather past 2 weeks in Berkeley, California, U.S.A.

Now
62 °F

Scattered clouds.


Feels Like: 62 °F
Forecast: 59 / 68 °F
Wind: 16 mph from West

Location: Metro Oakland International Airport

Current Time: Jul 7, 2015 at 9:58:35 PM

Latest Report: Jul 7, 2015 at 8:53 PM


Visibility: 10 mi

Pressure: 29.92 "Hg

Humidity: 78%

Dew point: 55 °F

Location of BerkeleyLocation

Historic Weather in Berkeley — Graph

°F

Berkeley temperature yesterday

Maximum temperature yesterday: 72 °F (at 3:53 PM)
Minimum temperature yesterday: 61 °F (at 4:53 AM)
Average temperature yesterday: 65 °F

Past Weeks' High & Low Weather Summary

 TemperatureHumidityPressure
High81 °F (Jun 30, 2:53 PM)90% (Jun 30, 3:53 AM)30.09 "Hg (Jun 30, 3:53 AM)
Low54 °F (Jun 23, 6:03 AM)39% (Jun 30, 2:53 PM)29.80 "Hg (Jun 30, 5:53 PM)
Average65 °F72%29.94 "Hg
* Reported Jun 22 7:53 PM — Jul 7 7:53 PM, Berkeley, Weather by CustomWeather, © 2015

Note: Actual official high and low records may vary slightly from our data, if they occured in-between our weather recording intervals... More about our weather records

Advertising

Berkeley weather history for previous 24 hours

 ConditionsComfort  
Time TempWeatherWind HumidityBarometerVisibility
7:53 PM
Tue, Jul 7
64 °FScattered clouds.14 mph75%29.92 "Hg10 mi
6:53 PM66 °FScattered clouds.16 mph70%29.92 "Hg10 mi
5:53 PM68 °FScattered clouds.18 mph68%29.92 "Hg10 mi
4:53 PM69 °FScattered clouds.17 mph66%29.93 "Hg10 mi
3:53 PM70 °FScattered clouds.18 mph64%29.95 "Hg10 mi
2:53 PM71 °FScattered clouds.17 mph61%29.96 "Hg10 mi
1:53 PM70 °FScattered clouds.17 mph64%29.98 "Hg10 mi
12:53 PM72 °FScattered clouds.14 mph61%30.01 "Hg10 mi
11:53 AM68 °FPartly sunny.7 mph68%30.02 "Hg10 mi
10:53 AM67 °FOvercast.8 mph71%30.02 "Hg10 mi
9:53 AM65 °FOvercast.8 mph76%30.03 "Hg10 mi
8:53 AM65 °FOvercast.8 mph73%30.04 "Hg10 mi
7:53 AM63 °FOvercast.7 mph81%30.03 "Hg10 mi
6:53 AM63 °FOvercast.13 mph81%30.03 "Hg10 mi
5:53 AM62 °FOvercast.12 mph83%30.02 "Hg10 mi
4:53 AM62 °FLow clouds.9 mph83%30.01 "Hg10 mi
3:53 AM62 °FLow clouds.15 mph83%30.01 "Hg10 mi
2:53 AM62 °FOvercast.12 mph83%30.01 "Hg10 mi
1:53 AM62 °FOvercast.14 mph86%30.02 "Hg10 mi
12:53 AM63 °FOvercast.13 mph84%30.02 "Hg10 mi
11:53 PM
Mon, Jul 6
63 °FPassing clouds.14 mph84%30.03 "Hg10 mi
10:53 PM63 °FPassing clouds.15 mph84%30.03 "Hg10 mi
9:53 PM63 °FPassing clouds.15 mph84%30.03 "Hg10 mi
Weather by CustomWeather, © 2015

See weather overviewHow to use our weather pages